DELTA 1 DEB

Satellite information

Favourite Embed

Satellite Type and Status

DEBRISIN ORBIT

Key statistics

Satellite DELTA 1 DEB at a glance.

Uptime

18447

Days in orbit

Revolutions

≈ 13.8

Per day

Orbit

SSO

Sun Synchronous Orbit

Inclination

99.9

Latest

Satellite identification and parameters

Extended collection of information and parameters for DELTA 1 DEB.

Object identification

Identified? True

Debris? True

Object name: DELTA 1 DEB

International designator: 1975-052KK

Object number (NORAD): 26831

Object ID (CCSDS): 26831

Country: UNITED STATES OF AMERICA (US)

Current information (Y/N): Y

RCS size: SMALL

Orbital parameters

Period: 104.701 minutes

Inclination: 99.8681 deg

SMA: 7358.598 km

Apoapsis: 1026.818 km

Periapsis: 934.108 km

RAAN: 60.1864 deg

Eccentricy: 0.00629939

Argument of periapsis: 135.1572 deg

Mean anomaly: 242.6082 deg

Mean motion: 13.75340251 rev/day

Mean motion (dot): 0.00006059 rev/day2

B* drag term: 0.0062643874 1/REarth

Two-line elements (TLE)

Creation date: Dec. 11, 2025, 7:14 p.m.

Reference frame: TEME

Reference center: EARTH

Epoch: Dec. 11, 2025, 10:53 a.m. UTC

TLE line 0: 0 DELTA 1 DEB

TLE line 1: 1 26831U 75052KK 25345.45414084 .00006059 00000-0 62644-2 0 9992

TLE line 2: 2 26831 99.8681 60.1864 0062994 135.1572 242.6082 13.75340251628586

Live tracking on map

Real-time ground track for satellite DELTA 1 DEB.

In-orbit conjunctions

A list of the most updated potential collisions computed for object DELTA 1 DEB.

Target Orbit TCA Probability of collision Miss distance Type
COSMOS 1308 LEO 2025-07-06 04:29:27 0.0001418373 274.0 (m) PAYLOAD
COSMOS 700 LEO 2024-09-08 11:42:13 0.0001411012 863.0 (m) PAYLOAD

Associated space launch

Experimental meteorological satellite

DELTA 1 DEB was lifted into orbit during the mission ‘Delta 2910 | Nimbus 6’, on board a Delta 2910 space rocket.

The launch took place on June 12, 1975, 8:12 a.m. from Space Launch Complex 2W.

For more information about the launch, click the button.

Launch to space Delta 2910 | Nimbus 6
Delta 2910 | Nimbus 6

Agency: N/A

Status: Launch Successful

Launch date: June 12, 1975, 8:12 a.m. UTC

Rocket: Delta 2910

Launch pad: Space Launch Complex 2W

Location: Vandenberg SFB, CA, USA

...

Latest news about this satellite

There are no fresh news available about this satellite. Check back as we update our databases every day.


Newsletter sign-up

Weekly statistics, charts and insights to help you stay on top of the space industry.